TimeEDT,TemperatureF,Dew PointF,Humidity,Sea Level PressureIn,VisibilityMPH,Wind Direction,Wind SpeedMPH,Gust SpeedMPH,PrecipitationIn,Events,Conditions,WindDirDegrees,DateUTC
12:55 AM,48.4,47.3,96,30.23,10.0,Calm,Calm,-,N/A,,Clear,0,2012-10-12 04:55:00
1:55 AM,47.5,46.6,97,30.22,10.0,Calm,Calm,-,N/A,,Clear,0,2012-10-12 05:55:00
2:55 AM,47.5,46.9,98,30.21,10.0,Calm,Calm,-,N/A,,Clear,0,2012-10-12 06:55:00
3:55 AM,46.6,45.5,96,30.19,10.0,Calm,Calm,-,N/A,,Clear,0,2012-10-12 07:55:00
4:55 AM,46.4,45.9,98,30.19,10.0,Calm,Calm,-,N/A,,Clear,0,2012-10-12 08:55:00
5:55 AM,46.4,45.9,98,30.19,10.0,Calm,Calm,-,N/A,,Clear,0,2012-10-12 09:55:00
6:55 AM,45.3,44.4,97,30.21,10.0,Calm,Calm,-,N/A,,Clear,0,2012-10-12 10:55:00
7:55 AM,46.2,44.6,94,30.22,10.0,Calm,Calm,-,N/A,,Clear,0,2012-10-12 11:55:00
8:55 AM,53.4,47.7,81,30.23,10.0,NW,4.6,-,N/A,,Clear,310,2012-10-12 12:55:00
9:55 AM,60.4,47.5,62,30.25,10.0,WNW,4.6,-,N/A,,Clear,290,2012-10-12 13:55:00
10:21 AM,64.4,48.2,56,30.25,10.0,WNW,5.8,-,N/A,,Mostly Cloudy,290,2012-10-12 14:21:00
10:25 AM,64.4,48.2,56,30.25,10.0,WNW,5.8,-,N/A,,Clear,290,2012-10-12 14:25:00
10:55 AM,66.4,48.7,53,30.24,10.0,WNW,3.5,-,N/A,,Clear,290,2012-10-12 14:55:00
11:55 AM,68.5,49.8,51,30.22,10.0,Variable,3.5,-,N/A,,Clear,0,2012-10-12 15:55:00
12:55 PM,70.7,47.1,43,30.20,10.0,Variable,4.6,-,N/A,,Clear,0,2012-10-12 16:55:00
1:55 PM,70.3,45.7,41,30.18,10.0,North,5.8,-,N/A,,Clear,350,2012-10-12 17:55:00
2:55 PM,73.4,44.8,36,30.17,10.0,Variable,4.6,-,N/A,,Clear,0,2012-10-12 18:55:00
3:55 PM,74.7,47.8,39,30.17,10.0,West,10.4,-,N/A,,Clear,280,2012-10-12 19:55:00
4:55 PM,74.5,48.0,39,30.18,10.0,NNW,8.1,-,N/A,,Clear,340,2012-10-12 20:55:00
5:55 PM,72.7,47.3,40,30.19,10.0,NNW,6.9,-,N/A,,Clear,330,2012-10-12 21:55:00
6:55 PM,67.1,50.4,55,30.22,9.0,North,3.5,-,N/A,,Clear,10,2012-10-12 22:55:00
7:55 PM,63.1,51.4,66,30.25,9.0,North,4.6,-,N/A,,Clear,10,2012-10-12 23:55:00
8:55 PM,61.3,49.1,64,30.26,9.0,Calm,Calm,-,N/A,,Clear,0,2012-10-13 00:55:00
9:55 PM,57.4,52.2,83,30.28,6.0,NNE,3.5,-,N/A,,Haze,30,2012-10-13 01:55:00